Terminal Aerodrome Forecast
Issued by NWS Des Moines, IA

Home | Current Version | Previous Version | Text Only | Print | Product List | Glossary On
Versions: 1 2 3 4 5 6 7 8 9 10 11 12 13 14 15 16 17 18 19 20 21 22 23 24 25 26 27 28 29 30 31 32 33 34 35 36 37 38 39 40 41 42 43 44 45 46 47 48 49 50
000
FTUS43 KDMX 281746
TAFALO
TAF
KALO 281746Z 2818/2918 18013G21KT P6SM BKN240
     FM290100 16010KT P6SM BKN100
     FM290200 15008KT P6SM VCSH SCT045 BKN080
     FM290400 17008KT 6SM -SHRA OVC040
     FM291400 20008KT P6SM SCT025 OVC040=

USA.gov is the U.S. government's official web portal to all federal, state and local government web resources and services.